Weather History for Lone Rock, WI

Change the Weather History Date:

Saturday, September 8, 2012

  Actual Average Record
Temperature  
Mean Temperature 60 °F -  
Max Temperature 73 °F 75 °F 89 °F (2002)
Min Temperature 48 °F 51 °F 45 °F (2004)
Degree Days  
Heating Degree Days 5    
Growing Degree Days 10 (Base 50)    
Moisture  
Dew Point 49 °F    
Average Humidity 69    
Maximum Humidity 90    
Minimum Humidity 40    
Precipitation  
Precipitation 0.12 in - - ()
Sea Level Pressure  
Sea Level Pressure 29.88 in    
Wind  
Wind Speed 9 mph (WNW)    
Max Wind Speed 28 mph    
Max Gust Speed 41 mph    
Visibility 9 miles    
Events Rain , Thunderstorm    
Averages and records for this station are not official NWS values.
T = Trace of Precipitation, MM = Missing Value Source: NWS Daily Summary

Daily Weather History Graph

Daily Weather History Graph

Search for Another Location

Airport:

Trip Planner

Search our weather history database for the weather conditions in past years. The results will help you decide how hot, cold, wet, or windy it might be!

Date:

Astronomy

Sep. 08, 2012 Rise Set
Actual Time 6:33 AM CDT 7:22 PM CDT
Civil Twilight 6:04 AM CDT 7:51 PM CDT
Nautical Twilight 5:29 AM CDT 8:25 PM CDT
Astronomical Twilight 4:54 AM CDT 9:01 PM CDT
Moon 11:56 PM CDT (9/8) 2:26 PM CDT (9/8)
Length of Visible Light 13h 47m
Length of Day
12h 49m
Waning Gibbous, 48% of the Moon is Illuminated
Sep 8
Waning Gibbous
Sep 15
New
Sep 22
First Quarter
Sep 29
Full
Oct 8
Last Quarter

Hourly Weather History & Observations

Time (CDT) Temp. Dew Point Humidity Pressure Visibility Wind Dir Wind Speed Gust Speed Precip Events Conditions
1:56 AM 53.1 °F 46.9 °F 80% 29.94 in 10.0 mi NW 5.8 mph - N/A   Clear
2:56 AM 53.1 °F 46.9 °F 80% 29.94 in 10.0 mi WNW 6.9 mph - N/A   Clear
3:56 AM 50.0 °F 46.9 °F 89% 29.95 in 10.0 mi West 8.1 mph - N/A   Clear
4:56 AM 48.9 °F 46.0 °F 90% 29.94 in 10.0 mi West 8.1 mph - N/A   Clear
5:56 AM 48.9 °F 46.0 °F 90% 29.95 in 10.0 mi West 5.8 mph - N/A   Clear
6:56 AM 48.9 °F 46.0 °F 90% 29.96 in 10.0 mi West 8.1 mph - N/A   Clear
7:56 AM 51.1 °F 46.9 °F 86% 29.96 in 10.0 mi West 5.8 mph - N/A   Clear
8:56 AM 55.9 °F 48.9 °F 77% 29.95 in 10.0 mi WNW 10.4 mph - N/A   Clear
9:56 AM 60.1 °F 48.9 °F 67% 29.94 in 10.0 mi WNW 11.5 mph - N/A   Clear
10:56 AM 64.0 °F 48.9 °F 58% 29.92 in 10.0 mi NW 15.0 mph 20.7 mph N/A   Partly Cloudy
11:56 AM 64.9 °F 48.9 °F 56% 29.92 in 10.0 mi WNW 11.5 mph 20.7 mph N/A   Scattered Clouds
12:56 PM 68.0 °F 48.0 °F 49% 29.89 in 10.0 mi WNW 13.8 mph 21.9 mph N/A   Mostly Cloudy
1:56 PM 70.0 °F 48.0 °F 46% 29.88 in 10.0 mi WNW 16.1 mph 20.7 mph N/A   Partly Cloudy
2:56 PM 70.0 °F 46.0 °F 42% 29.85 in 10.0 mi WNW 15.0 mph 23.0 mph N/A   Scattered Clouds
3:56 PM 71.1 °F 46.9 °F 42% 29.82 in 10.0 mi WNW 13.8 mph - N/A   Partly Cloudy
4:56 PM 72.0 °F 46.0 °F 40% 29.79 in 10.0 mi West 16.1 mph 21.9 mph N/A   Clear
5:56 PM 72.0 °F 46.9 °F 41% 29.75 in 10.0 mi SW 10.4 mph - N/A   Clear
6:56 PM 69.1 °F 48.0 °F 47% 29.72 in 10.0 mi SW 8.1 mph - N/A   Mostly Cloudy
7:05 PM 69.8 °F 48.2 °F 46% 29.74 in 10.0 mi Calm Calm - N/A Thunderstorm Thunderstorm
7:17 PM 62.6 °F 53.6 °F 72% 29.81 in 1.8 mi NW 27.6 mph 41.4 mph 0.09 in Rain , Thunderstorm Light Thunderstorms and Rain
7:26 PM 60.8 °F 53.6 °F 77% 29.83 in 3.0 mi NNW 11.5 mph 41.4 mph 0.10 in Rain , Thunderstorm Light Thunderstorms and Rain
7:40 PM 59.0 °F 55.4 °F 88% 29.82 in 7.0 mi North 9.2 mph 19.6 mph 0.12 in Rain Light Rain
7:56 PM 59.0 °F 55.0 °F 87% 29.82 in 10.0 mi North 4.6 mph - 0.12 in   Overcast
8:56 PM 57.9 °F 55.0 °F 90% 29.87 in 10.0 mi North 4.6 mph - N/A   Scattered Clouds
9:56 PM 57.0 °F 51.1 °F 81% 29.88 in 10.0 mi North 11.5 mph - N/A   Clear
11:56 PM 55.0 °F 50.0 °F 83% 29.93 in 10.0 mi WNW 5.8 mph - N/A   Clear